[[{"header":{"parameterUnit":"m.s-1","parameterCategory":1,"la1":30.2991,"la2":30.254,"lo1":-89.0895,"lo2":-89.0444,"dy":0.0017,"dx":0.0017,"nx":28,"ny":28,"refTime":"2025-07-14T03:00:00:Z","depth":0,"parameterNumber":2,"parameterNumberName":"U-component_of_WINDS"},"data":[0,0,0,0,0,0,0,0,0,0,0,0,0,0,0,0,0,0,0,0,0,0,0,0,0,0,0,0,0,0,0,0,0,0,0,0,0,0,0,0,0,0,0,0,0,0,0,0,0,0,0,0,0,0,0,0,0,0,2.9199,2.9201,0,2.9382,2.9384,2.9386,2.9414,2.9412,2.9411,2.9409,2.96,2.9606,2.9613,0,0,0,0,0,0,0,0,0,0,0,0,0,2.8879,2.8884,2.9199,2.9201,2.9204,2.9381,2.9384,2.9387,2.9414,2.9412,2.941,2.9408,2.9598,2.9606,2.9613,0,0,0,0,0,0,0,0,0,0,0,0,0,2.9035,2.8886,2.9199,2.9239,2.9244,2.9381,2.9384,2.9387,2.9415,2.9412,2.941,2.9407,2.9595,2.9605,2.9615,2.9725,0,0,2.9645,2.9649,0,0,0,0,0,0,0,0,2.9026,2.9047,2.9231,2.9236,2.9243,2.9372,2.9341,2.9501,2.9415,2.935,2.9409,2.9406,2.9526,2.9542,2.9582,2.9734,2.9742,2.9646,2.9652,2.9656,2.9659,0,0,0,0,0,0,0,2.9015,2.9039,2.9271,2.9233,2.9241,2.9249,2.9269,2.9371,2.945,2.9356,2.9358,2.9379,2.9529,2.9572,2.9586,2.9745,2.9645,2.9654,2.966,2.9664,2.9999,3.0001,0,0,0,0,0,0,2.8997,2.903,2.9266,2.9277,2.9126,2.9257,2.9279,2.9333,2.9449,2.9464,2.9381,2.938,2.9556,2.9575,2.9593,2.973,2.9656,2.9665,2.9671,2.9996,2.9999,3.0002,0,0,0,0,0,0,2.899,2.9017,2.9258,2.9154,2.9186,2.9265,2.9326,2.9338,2.9381,2.9468,2.9483,2.941,2.9555,2.9579,2.9692,2.9737,2.967,2.9679,2.9992,2.9997,3.0001,3.0004,0,0,0,0,0,0,2.898,2.9015,2.9056,2.9155,2.9191,2.9353,2.9329,2.9344,2.9397,2.9397,2.9499,2.9514,2.9555,2.9677,2.9702,2.9749,2.9687,2.9989,2.9994,2.9999,3.0001,3.0008,3.0015,0,0,0,0,0,2.8969,2.9051,2.9058,2.9087,2.9244,2.9355,2.9376,2.9421,2.9401,2.9444,2.95,2.951,2.9729,2.9688,2.9717,2.9768,2.9986,2.9993,2.9999,2.9997,3.0007,3.0015,0,0,0,0,0,0,2.8956,2.9064,2.9074,2.919,2.9263,2.9359,2.9415,2.9429,2.951,2.9507,2.9561,2.9584,2.9694,2.9743,2.9696,2.9882,2.9856,2.9868,2.9845,2.9855,2.9862,2.9847,2.9695,0,0,0,0,0,2.8967,2.9046,2.9137,2.9231,2.9267,2.9335,2.9385,2.9413,2.9491,2.9523,2.9587,2.9664,2.975,2.9806,2.989,3.0009,3.0031,3.0058,3.0065,3.0071,3.008,3.0147,3.016,3.0024,3.0024,3.0024,0,0,2.899,2.9059,2.9106,2.923,2.929,2.9372,2.9361,2.9448,2.951,2.9537,2.9646,2.9697,2.9786,2.9903,2.9957,2.9947,3.0124,3.0079,3.0083,3.009,3.0155,3.0168,3.018,3.0029,3.0028,3.0027,0,0,2.9072,2.9133,2.9217,2.9278,2.9368,2.9413,2.9434,2.9529,2.9563,2.9674,2.9696,2.9771,2.9918,2.9981,3.0032,3.0141,3.0153,3.0168,3.0204,3.0269,3.028,3.0289,3.0327,3.0341,3.0177,3.0177,3.0177,0,2.9089,2.9213,2.9259,2.9346,2.94,2.9428,2.9515,2.9572,2.9686,2.9723,2.971,2.9895,2.9958,3.0089,3.0115,3.0156,3.0182,3.0155,3.0274,3.0284,3.0294,3.0331,3.0345,3.0178,3.0178,3.0178,3.0178,0,2.9229,2.9314,2.9372,2.948,2.9542,2.9628,2.9689,2.9746,2.977,2.9816,2.993,3.0006,3.0106,3.014,3.0164,3.0275,3.0266,3.0263,3.0238,3.0307,3.0343,3.0357,3.018,3.0179,3.0179,3.0179,0,0,2.9306,2.944,2.946,2.951,2.9613,2.9681,2.9769,2.9866,2.9913,2.9992,3.0068,3.0193,3.0191,3.0249,3.0281,3.0338,3.0419,3.0329,3.0332,3.0342,3.0546,3.0545,3.0561,3.0429,3.0432,3.0434,3.0538,0,2.94,2.9556,2.9602,2.9734,2.9814,2.9843,2.992,2.9992,3.0039,3.0115,3.0168,3.0255,3.0246,3.0281,3.0339,3.0397,3.046,3.039,3.05,3.0503,3.0474,3.058,3.058,3.0674,3.0552,3.0554,3.0556,0,2.9529,2.9609,2.9749,2.9842,2.9878,2.9946,3.0039,3.0111,3.0195,3.0225,3.029,3.0318,3.0413,3.0385,3.0517,3.0468,3.0516,3.0552,3.0556,3.0567,3.0532,3.0591,3.0705,3.0718,3.0579,3.0577,3.0575,0,2.957,2.9713,2.9815,2.9857,2.9969,3.0016,3.0065,3.0147,3.0202,3.0284,3.0321,3.0414,3.0464,3.0536,3.0589,3.0563,3.0716,3.0692,3.0744,3.0742,3.0773,3.077,3.0894,3.0807,3.0807,3.0807,3.0806,0,2.9668,2.9752,2.9834,2.9897,2.9993,3.0046,3.0139,3.019,3.0263,3.0337,3.0369,3.0438,3.0504,3.0583,3.0625,3.0728,3.0751,3.0778,3.0788,3.0774,3.0771,3.0805,3.0799,3.081,3.0809,3.0809,3.0808,0,2.9728,2.9787,2.99,2.9997,3.0024,3.009,3.0174,3.0236,3.0285,3.0379,3.0404,3.0481,3.0575,3.0635,3.0756,3.0784,3.0896,3.0905,3.0867,3.0871,3.0919,3.0913,3.1068,3.1091,3.0991,3.0991,3.0992,0,2.9786,2.9851,2.9956,3.0007,3.0056,3.0139,3.0195,3.0251,3.0309,3.0411,3.0461,3.0557,3.0637,3.0786,3.0854,3.0947,3.0957,3.1005,3.0971,3.0955,3.0956,3.095,3.0957,3.101,3.101,3.1011,3.1012,0,2.9882,2.9908,2.9988,3.0078,3.0145,3.0219,3.0294,3.0335,3.0404,3.0468,3.0564,3.0625,3.0748,3.0843,3.0942,3.0995,3.1015,3.1022,3.1039,3.1024,3.0998,3.1012,3.088,3.1018,3.1017,3.1017,3.1016,3.1016,2.9942,3.0001,3.0084,3.0172,3.0234,3.0303,3.0367,3.0424,3.0504,3.0607,3.0637,3.0737,3.0821,3.0956,3.1011,3.1091,3.1085,3.1109,3.1115,3.112,3.1119,3.0988,3.1109,3.1109,3.1109,3.1109,3.1109,0,3.0038,3.0093,3.0174,3.0276,3.0346,3.036,3.0443,3.0501,3.0588,3.0664,3.0742,3.0853,3.0946,3.1022,3.1118,3.1168,3.1179,3.1191,3.1187,3.1198,3.112,3.1095,3.118,3.118,3.118,3.118,3.1179,3.1179,3.0096,3.0196,3.0233,3.0365,3.0421,3.0518,3.0565,3.0629,3.069,3.0812,3.0889,3.0938,3.1014,3.1116,3.1203,3.1223,3.1256,3.1265,3.1287,3.1212,3.1204,3.1196,3.1173,3.1273,3.1273,3.1359,3.1359,3.136]},{"header":{"parameterUnit":"m.s-1","parameterCategory":1,"la1":30.2991,"la2":30.254,"lo1":-89.0895,"lo2":-89.0444,"dy":0.0017,"dx":0.0017,"nx":28,"ny":28,"refTime":"2025-07-14T03:00:00:Z","depth":0,"parameterNumber":3,"parameterNumberName":"V-component_of_WINDS"},"data":[0,0,0,0,0,0,0,0,0,0,0,0,0,0,0,0,0,0,0,0,0,0,0,0,0,0,0,0,0,0,0,0,0,0,0,0,0,0,0,0,0,0,0,0,0,0,0,0,0,0,0,0,0,0,0,0,0,0,2.9645,2.9645,0,2.9658,2.9658,2.9658,2.963,2.9629,2.9628,2.9627,2.9639,2.964,2.9641,0,0,0,0,0,0,0,0,0,0,0,0,0,2.9592,2.9594,2.9645,2.9645,2.9645,2.9658,2.9658,2.9658,2.963,2.9629,2.9628,2.9627,2.9639,2.964,2.9641,0,0,0,0,0,0,0,0,0,0,0,0,0,2.9611,2.9594,2.9645,2.9633,2.9632,2.9658,2.9658,2.9658,2.963,2.9629,2.9627,2.9626,2.9638,2.964,2.9642,2.968,0,0,2.9647,2.9648,0,0,0,0,0,0,0,0,2.961,2.9613,2.9634,2.9634,2.9632,2.9641,2.9644,2.9666,2.9631,2.9631,2.9627,2.9625,2.9641,2.9642,2.9648,2.968,2.9681,2.9647,2.9648,2.9649,2.9649,0,0,0,0,0,0,0,2.9609,2.9613,2.965,2.9635,2.9634,2.9625,2.9627,2.9648,2.9643,2.9631,2.9629,2.9631,2.964,2.9646,2.9648,2.9681,2.9647,2.9649,2.965,2.965,2.9743,2.9744,0,0,0,0,0,0,2.961,2.9612,2.965,2.965,2.9618,2.9628,2.9629,2.964,2.9643,2.9642,2.9632,2.9629,2.9644,2.9646,2.9648,2.969,2.9649,2.9651,2.9652,2.9742,2.9743,2.9745,0,0,0,0,0,0,2.9609,2.9613,2.9649,2.963,2.9634,2.963,2.9642,2.9641,2.9646,2.9644,2.9643,2.9639,2.9643,2.9645,2.9672,2.9691,2.9651,2.9653,2.974,2.9742,2.9744,2.9778,0,0,0,0,0,0,2.9607,2.9613,2.9628,2.9631,2.9636,2.9673,2.9643,2.9642,2.965,2.9647,2.965,2.9649,2.9642,2.9669,2.9673,2.9692,2.9654,2.9738,2.9741,2.9743,2.9775,2.9781,2.9786,0,0,0,0,0,2.9605,2.9638,2.9629,2.9634,2.9655,2.9675,2.9677,2.9668,2.9652,2.9666,2.9664,2.9649,2.9688,2.9672,2.9677,2.9696,2.9737,2.974,2.9743,2.9772,2.9779,2.9786,0,0,0,0,0,0,2.9638,2.9638,2.9629,2.9663,2.9669,2.967,2.9688,2.9676,2.9687,2.9683,2.9671,2.9672,2.97,2.9701,2.9683,2.9732,2.971,2.9714,2.973,2.9737,2.9742,2.9741,2.9656,0,0,0,0,0,2.9649,2.9665,2.9665,2.9695,2.9698,2.9693,2.9701,2.9694,2.9699,2.9701,2.9701,2.9707,2.972,2.9729,2.9741,2.9775,2.9774,2.9791,2.9796,2.9801,2.9804,2.982,2.9826,2.9755,2.9755,2.9755,0,0,2.9672,2.9674,2.9685,2.9701,2.9705,2.9721,2.9695,2.9714,2.9726,2.9704,2.9728,2.9728,2.9733,2.9763,2.9776,2.9765,2.9824,2.9805,2.9809,2.9809,2.9824,2.983,2.9836,2.9757,2.9757,2.9757,0,0,2.9721,2.9726,2.975,2.9754,2.976,2.9756,2.9761,2.9764,2.9763,2.9787,2.977,2.9784,2.9807,2.9811,2.9816,2.9865,2.9851,2.9869,2.9897,2.9912,2.9918,2.9923,2.9938,2.9944,2.9873,2.9873,2.9873,0,2.9749,2.9773,2.9764,2.9783,2.979,2.9771,2.9794,2.9799,2.9808,2.9813,2.98,2.9828,2.983,2.9859,2.9871,2.9876,2.9881,2.9868,2.9918,2.9923,2.9927,2.9941,2.9947,2.9875,2.9875,2.9875,2.9874,0,2.9806,2.9823,2.9842,2.985,2.9859,2.9881,2.9873,2.9883,2.9875,2.9871,2.9895,2.9897,2.9908,2.9915,2.9907,2.9942,2.9934,2.992,2.9897,2.9936,2.9949,2.9955,2.9878,2.9877,2.9877,2.9876,0,0,2.9876,2.9878,2.9885,2.9887,2.9892,2.9904,2.9924,2.9935,2.9942,2.995,2.9964,2.9984,2.9971,2.9976,2.9969,2.9982,3.0018,2.9966,2.9966,2.9974,3.0054,3.0063,3.0069,3.0009,3.0011,3.0011,3.0053,0,2.9923,2.9956,2.9948,2.9981,2.9995,2.9977,2.9994,2.9998,2.9995,3.0006,3.0003,3.0016,2.9998,3.0001,3.0014,3.0011,3.0033,3.0008,3.0021,3.0022,3.0019,3.0077,3.0087,3.0125,3.0058,3.0059,3.0059,0,2.9982,2.999,3.0025,3.0024,3.003,3.0045,3.0053,3.0065,3.0068,3.0065,3.0071,3.006,3.0077,3.0055,3.0079,3.0062,3.0067,3.0066,3.0067,3.0066,3.0042,3.0075,3.0138,3.0143,3.0068,3.0067,3.0067,0,3.0026,3.0046,3.0069,3.0072,3.0073,3.0084,3.0085,3.0087,3.0093,3.01,3.0103,3.0113,3.0117,3.0124,3.0115,3.0101,3.0139,3.0117,3.0136,3.0136,3.0143,3.0142,3.0205,3.015,3.015,3.015,3.015,0,3.0078,3.0099,3.0088,3.0102,3.0124,3.0114,3.0136,3.0135,3.0136,3.0148,3.0134,3.0146,3.0134,3.0145,3.0138,3.0157,3.016,3.0157,3.0154,3.0157,3.0157,3.0158,3.0155,3.0152,3.0151,3.0151,3.0151,0,3.0131,3.0125,3.0147,3.0146,3.0146,3.0162,3.0161,3.0173,3.0169,3.0184,3.0187,3.018,3.0192,3.0184,3.0196,3.0191,3.0215,3.021,3.0214,3.0212,3.023,3.0227,3.0294,3.0301,3.0244,3.0244,3.0245,0,3.0163,3.0179,3.0179,3.0186,3.0187,3.0199,3.0205,3.0195,3.0201,3.0205,3.0216,3.0226,3.0233,3.0252,3.0248,3.0256,3.025,3.0272,3.0251,3.0252,3.0247,3.0245,3.0246,3.0276,3.0277,3.0277,3.0278,0,3.0221,3.0216,3.0226,3.0233,3.0241,3.0246,3.0251,3.0257,3.0247,3.0255,3.0266,3.0271,3.0282,3.0292,3.0298,3.0298,3.0286,3.0285,3.0289,3.0291,3.0291,3.0289,3.0223,3.0283,3.0283,3.0282,3.0282,3.0282,3.0263,3.0275,3.0276,3.0286,3.0288,3.0292,3.0302,3.0299,3.0308,3.0316,3.031,3.0322,3.0323,3.0331,3.0332,3.0341,3.0332,3.0339,3.034,3.0341,3.0343,3.0292,3.0343,3.0343,3.0342,3.0342,3.0342,0,3.0317,3.0317,3.0326,3.0332,3.034,3.0328,3.0332,3.0338,3.035,3.0352,3.0359,3.0371,3.0379,3.0376,3.0383,3.0391,3.0385,3.0393,3.0391,3.0391,3.0352,3.0346,3.0397,3.0397,3.0397,3.0397,3.0397,3.0397,3.0346,3.0365,3.036,3.0379,3.0379,3.0391,3.0393,3.0397,3.0398,3.0412,3.0418,3.0416,3.0415,3.0422,3.0429,3.0428,3.043,3.044,3.0436,3.0399,3.0394,3.0389,3.0383,3.0441,3.0441,3.0474,3.0474,3.0475]}]]